CFG6AW EPKK-EDDB

Flight info

Callsign CFG6AW
Flight time 0h 57m
Altitude 34000
Route LUMVE L619 NUDRO T710 VAGON T205 NUKRO NUKRO1R
Aircraft A321/M-SDE3FGHIRWY/LB1

Departure

Time 2026-05-05 16:21
Airport Kraków John Paul II International Airport (EPKK)

Arrival

Time 2026-05-05 17:18
Airport Berlin Brandenburg Airport (EDDB)
Time Latitude Longitude Altitude Speed Heading
2026-05-05 15:31 50.07475 19.80079 789 ft 0 kts 168°
2026-05-05 16:15 50.07420 19.80153 788 ft 11 kts 83°
2026-05-05 16:16 50.07505 19.80395 788 ft 14 kts 17°
2026-05-05 16:16 50.07673 19.80395 788 ft 18 kts 347°
2026-05-05 16:17 50.07829 19.80342 788 ft 2 kts 347°
2026-05-05 16:18 50.07882 19.80324 788 ft 12 kts 347°
2026-05-05 16:19 50.07967 19.80293 787 ft 13 kts 344°
2026-05-05 16:19 50.08012 19.80193 787 ft 8 kts 267°
2026-05-05 16:19 50.08008 19.80158 787 ft 0 kts 258°
2026-05-05 16:20 50.07967 19.79868 787 ft 62 kts 257°
2026-05-05 16:20 50.07617 19.77446 900 ft 149 kts 256°
2026-05-05 16:21 50.07136 19.74313 1955 ft 148 kts 256°
2026-05-05 16:22 50.06818 19.69430 3116 ft 154 kts 262°
2026-05-05 16:22 50.06423 19.66048 3504 ft 175 kts 249°
2026-05-05 16:23 50.05664 19.62053 3784 ft 209 kts 250°
2026-05-05 16:23 50.05279 19.59820 4100 ft 216 kts 251°
2026-05-05 16:23 50.04561 19.55281 4841 ft 218 kts 253°
2026-05-05 16:24 50.04214 19.52979 5209 ft 218 kts 253°
2026-05-05 16:24 50.03876 19.50680 5588 ft 217 kts 253°
2026-05-05 16:24 50.03202 19.46040 6156 ft 228 kts 253°
2026-05-05 16:25 50.02884 19.43522 6341 ft 249 kts 260°
2026-05-05 16:25 50.03530 19.37940 7427 ft 277 kts 289°
2026-05-05 16:25 50.04314 19.35173 8172 ft 280 kts 289°
2026-05-05 16:26 50.05880 19.29554 9677 ft 284 kts 290°
2026-05-05 16:26 50.07503 19.23693 10455 ft 313 kts 290°
2026-05-05 16:27 50.08393 19.20468 10566 ft 336 kts 290°
2026-05-05 16:27 50.09345 19.17010 10696 ft 356 kts 290°
2026-05-05 16:27 50.10328 19.13442 11043 ft 368 kts 290°
2026-05-05 16:27 50.11350 19.09756 11626 ft 372 kts 290°
2026-05-05 16:28 50.12384 19.06026 12225 ft 378 kts 290°
2026-05-05 16:28 50.13429 19.02240 12818 ft 382 kts 290°
2026-05-05 16:28 50.14483 18.98410 13413 ft 386 kts 290°
2026-05-05 16:28 50.15545 18.94537 13965 ft 389 kts 289°
2026-05-05 16:29 50.16609 18.90630 14496 ft 393 kts 289°
2026-05-05 16:29 50.17681 18.86684 15039 ft 395 kts 290°
2026-05-05 16:29 50.18743 18.82770 15561 ft 398 kts 290°
2026-05-05 16:29 50.19827 18.78782 16064 ft 401 kts 290°
2026-05-05 16:30 50.20925 18.74765 16574 ft 404 kts 291°
2026-05-05 16:30 50.22336 18.70921 17075 ft 411 kts 303°
2026-05-05 16:30 50.24219 18.67526 17584 ft 417 kts 314°
2026-05-05 16:30 50.26516 18.64732 18173 ft 421 kts 326°
2026-05-05 16:31 50.29131 18.62644 18647 ft 424 kts 335°
2026-05-05 16:31 50.31855 18.60848 19102 ft 425 kts 335°
2026-05-05 16:31 50.34585 18.59051 19555 ft 427 kts 335°
2026-05-05 16:31 50.37332 18.57241 19965 ft 429 kts 335°
2026-05-05 16:32 50.40089 18.55416 20388 ft 432 kts 334°
2026-05-05 16:32 50.42871 18.53567 20815 ft 434 kts 335°
2026-05-05 16:32 50.45628 18.51729 21247 ft 436 kts 334°
2026-05-05 16:32 50.48428 18.49858 21670 ft 439 kts 335°
2026-05-05 16:33 50.51248 18.47969 22080 ft 441 kts 335°
2026-05-05 16:33 50.54079 18.46071 22478 ft 443 kts 335°
2026-05-05 16:33 50.56865 18.43991 22849 ft 444 kts 328°
2026-05-05 16:33 50.59427 18.41275 23281 ft 443 kts 320°
2026-05-05 16:34 50.61823 18.38211 23644 ft 444 kts 319°
2026-05-05 16:34 50.64225 18.35135 23975 ft 446 kts 319°
2026-05-05 16:34 50.66643 18.32041 24325 ft 448 kts 319°
2026-05-05 16:34 50.69066 18.28939 24672 ft 450 kts 319°
2026-05-05 16:35 50.71504 18.25817 24955 ft 452 kts 319°
2026-05-05 16:35 50.73802 18.22437 25235 ft 452 kts 310°
2026-05-05 16:35 50.75778 18.18578 25551 ft 452 kts 305°
2026-05-05 16:35 50.77678 18.14615 25874 ft 454 kts 305°
2026-05-05 16:36 50.79593 18.10626 26203 ft 455 kts 305°
2026-05-05 16:36 50.81515 18.06623 26505 ft 458 kts 306°
2026-05-05 16:36 50.82790 18.03967 26698 ft 459 kts 306°
2026-05-05 16:36 50.85350 17.98622 27082 ft 461 kts 306°
2026-05-05 16:37 50.87288 17.94560 27471 ft 460 kts 305°
2026-05-05 16:37 50.88591 17.91822 27679 ft 460 kts 305°
2026-05-05 16:37 50.90487 17.87842 27775 ft 453 kts 305°
2026-05-05 16:37 50.92370 17.83888 27767 ft 446 kts 305°
2026-05-05 16:38 50.94234 17.79971 27771 ft 444 kts 305°
2026-05-05 16:38 50.96091 17.76063 27771 ft 443 kts 305°
2026-05-05 16:38 50.97943 17.72160 27770 ft 443 kts 305°
2026-05-05 16:38 50.99792 17.68250 27768 ft 444 kts 304°
2026-05-05 16:39 51.01646 17.64316 27772 ft 445 kts 304°
2026-05-05 16:39 51.03501 17.60371 27772 ft 445 kts 304°
2026-05-05 16:39 51.05360 17.56417 27778 ft 445 kts 304°
2026-05-05 16:39 51.07218 17.52470 27777 ft 445 kts 304°
2026-05-05 16:40 51.09075 17.48526 27780 ft 445 kts 304°
2026-05-05 16:40 51.10903 17.44631 27778 ft 445 kts 304°
2026-05-05 16:40 51.12758 17.40664 27775 ft 445 kts 304°
2026-05-05 16:40 51.14604 17.36704 27771 ft 445 kts 304°
2026-05-05 16:41 51.16505 17.32817 27784 ft 446 kts 309°
2026-05-05 16:41 51.18716 17.29325 27776 ft 448 kts 314°
2026-05-05 16:41 51.21004 17.25961 27771 ft 448 kts 314°
2026-05-05 16:41 51.23295 17.22585 27766 ft 448 kts 314°
2026-05-05 16:42 51.25588 17.19198 27771 ft 448 kts 314°
2026-05-05 16:42 51.27874 17.15812 27771 ft 448 kts 314°
2026-05-05 16:42 51.30037 17.12256 27771 ft 444 kts 307°
2026-05-05 16:42 51.31827 17.08263 27772 ft 441 kts 298°
2026-05-05 16:43 51.33297 17.03958 27789 ft 440 kts 295°
2026-05-05 16:43 51.34706 16.99701 27789 ft 440 kts 295°
2026-05-05 16:43 51.36145 16.95364 27799 ft 440 kts 295°
2026-05-05 16:43 51.37581 16.91040 27804 ft 439 kts 295°
2026-05-05 16:44 51.39011 16.86725 27810 ft 439 kts 295°
2026-05-05 16:44 51.40438 16.82407 27811 ft 438 kts 295°
2026-05-05 16:44 51.41858 16.78091 27811 ft 438 kts 295°
2026-05-05 16:44 51.43274 16.73768 27810 ft 438 kts 295°
2026-05-05 16:45 51.44689 16.69440 27817 ft 437 kts 295°
2026-05-05 16:45 51.46103 16.65118 27815 ft 437 kts 295°
2026-05-05 16:45 51.47519 16.60797 27814 ft 437 kts 295°
2026-05-05 16:45 51.48916 16.56531 27812 ft 437 kts 295°
2026-05-05 16:46 51.50331 16.52209 27822 ft 437 kts 295°
2026-05-05 16:46 51.51743 16.47890 27824 ft 436 kts 295°
2026-05-05 16:46 51.53149 16.43576 27820 ft 436 kts 295°
2026-05-05 16:46 51.54552 16.39255 27819 ft 435 kts 295°
2026-05-05 16:47 51.55950 16.34938 27818 ft 435 kts 295°
2026-05-05 16:47 51.57350 16.30617 27815 ft 435 kts 295°
2026-05-05 16:47 51.58742 16.26304 27811 ft 435 kts 294°
2026-05-05 16:47 51.60133 16.21977 27808 ft 435 kts 294°
2026-05-05 16:48 51.61516 16.17659 27800 ft 435 kts 294°
2026-05-05 16:48 51.62886 16.13387 27807 ft 434 kts 294°
2026-05-05 16:48 51.64274 16.09063 27828 ft 434 kts 294°
2026-05-05 16:48 51.65656 16.04761 27837 ft 433 kts 294°
2026-05-05 16:49 51.67041 16.00431 27848 ft 433 kts 294°
2026-05-05 16:49 51.68416 15.96122 27849 ft 432 kts 294°
2026-05-05 16:49 51.69792 15.91805 27849 ft 431 kts 294°
2026-05-05 16:49 51.71161 15.87504 27853 ft 431 kts 294°
2026-05-05 16:50 51.72528 15.83202 27851 ft 430 kts 294°
2026-05-05 16:50 51.73888 15.78913 27849 ft 430 kts 294°
2026-05-05 16:50 51.75247 15.74608 27846 ft 429 kts 293°
2026-05-05 16:50 51.76598 15.70318 27856 ft 429 kts 293°
2026-05-05 16:51 51.77931 15.66076 27847 ft 429 kts 293°
2026-05-05 16:51 51.79283 15.61762 27841 ft 429 kts 293°
2026-05-05 16:51 51.80629 15.57460 27833 ft 429 kts 293°
2026-05-05 16:51 51.81976 15.53149 27830 ft 429 kts 293°
2026-05-05 16:52 51.83317 15.48855 27394 ft 427 kts 293°
2026-05-05 16:52 51.84656 15.44557 26417 ft 430 kts 293°
2026-05-05 16:52 51.86007 15.40212 25446 ft 435 kts 293°
2026-05-05 16:52 51.87163 15.35701 24473 ft 433 kts 282°
2026-05-05 16:53 51.87867 15.30945 23475 ft 437 kts 279°
2026-05-05 16:53 51.88548 15.26122 22478 ft 439 kts 279°
2026-05-05 16:53 51.89217 15.21326 21724 ft 435 kts 279°
2026-05-05 16:53 51.89879 15.16558 21008 ft 430 kts 280°
2026-05-05 16:54 51.90520 15.11928 20331 ft 425 kts 280°
2026-05-05 16:54 51.91160 15.07267 19654 ft 421 kts 280°
2026-05-05 16:54 51.91792 15.02646 18994 ft 416 kts 280°
2026-05-05 16:54 51.92413 14.98089 18363 ft 412 kts 280°
2026-05-05 16:55 51.93028 14.93574 17676 ft 408 kts 281°
2026-05-05 16:55 51.93638 14.89104 16963 ft 404 kts 281°
2026-05-05 16:55 51.94240 14.84690 16270 ft 400 kts 280°
2026-05-05 16:55 51.94837 14.80293 15599 ft 396 kts 280°
2026-05-05 16:56 51.95416 14.76002 14910 ft 394 kts 280°
2026-05-05 16:56 51.96000 14.71663 14243 ft 392 kts 280°
2026-05-05 16:56 51.96579 14.67349 13938 ft 392 kts 280°
2026-05-05 16:56 51.97157 14.63026 13815 ft 391 kts 280°
2026-05-05 16:57 51.97734 14.58696 13845 ft 393 kts 280°
2026-05-05 16:57 51.98312 14.54364 13849 ft 393 kts 280°
2026-05-05 16:57 51.98888 14.50036 13702 ft 389 kts 280°
2026-05-05 16:57 51.99455 14.45767 13000 ft 386 kts 280°
2026-05-05 16:58 52.00017 14.41518 12320 ft 383 kts 280°
2026-05-05 16:58 52.00570 14.37308 11654 ft 379 kts 280°
2026-05-05 16:58 52.01118 14.33127 11017 ft 376 kts 280°
2026-05-05 16:58 52.01654 14.29037 10400 ft 374 kts 280°
2026-05-05 16:59 52.02193 14.24922 9968 ft 372 kts 280°
2026-05-05 16:59 52.02726 14.20814 9826 ft 366 kts 280°
2026-05-05 16:59 52.03238 14.16869 9844 ft 345 kts 280°
2026-05-05 16:59 52.03718 14.13151 9850 ft 326 kts 279°
2026-05-05 17:00 52.04171 14.09641 9850 ft 309 kts 279°
2026-05-05 17:00 52.04594 14.06362 9852 ft 293 kts 279°
2026-05-05 17:00 52.05003 14.03189 9854 ft 281 kts 279°
2026-05-05 17:00 52.05399 14.00089 9857 ft 280 kts 279°
2026-05-05 17:01 52.05792 13.96996 9857 ft 279 kts 279°
2026-05-05 17:01 52.06184 13.93913 9635 ft 277 kts 279°
2026-05-05 17:01 52.06572 13.90847 9211 ft 276 kts 279°
2026-05-05 17:01 52.06957 13.87791 8808 ft 275 kts 279°
2026-05-05 17:02 52.07343 13.84735 8406 ft 274 kts 280°
2026-05-05 17:02 52.07722 13.81727 8016 ft 274 kts 280°
2026-05-05 17:02 52.08101 13.78712 7845 ft 273 kts 280°
2026-05-05 17:02 52.08485 13.75669 7848 ft 275 kts 280°
2026-05-05 17:03 52.08869 13.72619 7854 ft 275 kts 280°
2026-05-05 17:03 52.09253 13.69567 7852 ft 275 kts 280°
2026-05-05 17:03 52.09635 13.66512 7851 ft 275 kts 280°
2026-05-05 17:03 52.10017 13.63456 7851 ft 275 kts 280°
2026-05-05 17:04 52.10396 13.60400 7848 ft 275 kts 280°
2026-05-05 17:04 52.10774 13.57339 7845 ft 275 kts 280°
2026-05-05 17:04 52.11149 13.54311 7795 ft 274 kts 280°
2026-05-05 17:04 52.11523 13.51289 7421 ft 273 kts 280°
2026-05-05 17:05 52.11896 13.48258 7018 ft 272 kts 280°
2026-05-05 17:05 52.12267 13.45239 6642 ft 271 kts 280°
2026-05-05 17:05 52.12635 13.42242 6273 ft 269 kts 280°
2026-05-05 17:05 52.13003 13.39250 5852 ft 269 kts 281°
2026-05-05 17:06 52.13367 13.36276 5441 ft 269 kts 281°
2026-05-05 17:06 52.13732 13.33279 5029 ft 269 kts 281°
2026-05-05 17:06 52.14094 13.30303 4835 ft 267 kts 282°
2026-05-05 17:06 52.14438 13.27465 4835 ft 250 kts 282°
2026-05-05 17:07 52.14763 13.24767 4879 ft 239 kts 282°
2026-05-05 17:07 52.15083 13.22110 4845 ft 238 kts 281°
2026-05-05 17:07 52.15402 13.19462 4846 ft 238 kts 281°
2026-05-05 17:07 52.15721 13.16815 4848 ft 242 kts 281°
2026-05-05 17:08 52.15979 13.14037 4847 ft 252 kts 275°
2026-05-05 17:08 52.16036 13.11167 4846 ft 254 kts 269°
2026-05-05 17:08 52.15796 13.08321 4843 ft 255 kts 249°
2026-05-05 17:08 52.14854 13.05881 4854 ft 255 kts 233°
2026-05-05 17:09 52.14053 13.03344 4840 ft 254 kts 258°
2026-05-05 17:09 52.14111 13.00607 4836 ft 240 kts 289°
2026-05-05 17:09 52.15010 12.98393 4849 ft 236 kts 321°
2026-05-05 17:09 52.16485 12.97302 4838 ft 233 kts 352°
2026-05-05 17:10 52.18058 12.97600 4495 ft 229 kts 24°
2026-05-05 17:10 52.19347 12.99111 4083 ft 228 kts 43°
2026-05-05 17:10 52.20480 13.00901 3695 ft 226 kts 45°
2026-05-05 17:10 52.21587 13.02707 3354 ft 223 kts 45°
2026-05-05 17:11 52.22682 13.04493 3064 ft 222 kts 45°
2026-05-05 17:11 52.23772 13.06280 3047 ft 222 kts 45°
2026-05-05 17:11 52.24861 13.08066 3050 ft 222 kts 45°
2026-05-05 17:11 52.25865 13.09978 3052 ft 222 kts 53°
2026-05-05 17:12 52.26775 13.11976 3042 ft 212 kts 53°
2026-05-05 17:12 52.27627 13.13897 3035 ft 206 kts 54°
2026-05-05 17:12 52.28451 13.15764 3038 ft 191 kts 54°
2026-05-05 17:12 52.29154 13.17356 3060 ft 162 kts 53°
2026-05-05 17:13 52.29708 13.18915 3036 ft 153 kts 66°
2026-05-05 17:13 52.30080 13.20491 3035 ft 149 kts 68°
2026-05-05 17:13 52.30456 13.22060 3035 ft 147 kts 68°
2026-05-05 17:13 52.30825 13.23620 3038 ft 147 kts 68°
2026-05-05 17:14 52.31196 13.25184 3023 ft 148 kts 68°
2026-05-05 17:14 52.31569 13.26748 2907 ft 146 kts 68°
2026-05-05 17:14 52.31940 13.28296 2750 ft 144 kts 67°
2026-05-05 17:14 52.32304 13.29814 2553 ft 142 kts 68°
2026-05-05 17:15 52.32665 13.31320 2378 ft 141 kts 68°
2026-05-05 17:15 52.33024 13.32820 2180 ft 142 kts 68°
2026-05-05 17:15 52.33376 13.34291 2003 ft 139 kts 67°
2026-05-05 17:15 52.33728 13.35760 1809 ft 138 kts 67°
2026-05-05 17:16 52.34079 13.37226 1631 ft 138 kts 66°
2026-05-05 17:16 52.34427 13.38684 1455 ft 144 kts 67°
2026-05-05 17:16 52.34797 13.40225 1552 ft 145 kts 67°
2026-05-05 17:16 52.35182 13.41872 1257 ft 167 kts 68°
2026-05-05 17:17 52.35605 13.43683 909 ft 170 kts 66°
2026-05-05 17:17 52.36015 13.45442 526 ft 161 kts 66°
2026-05-05 17:17 52.36410 13.47065 323 ft 149 kts 66°
2026-05-05 17:17 52.36785 13.48599 214 ft 142 kts 66°
2026-05-05 17:18 52.37131 13.49984 160 ft 120 kts 70°
2026-05-05 17:18 52.37344 13.50949 159 ft 58 kts 68°
2026-05-05 17:18 52.37449 13.51435 159 ft 37 kts 83°
2026-05-05 17:18 52.37447 13.51659 161 ft 10 kts 98°
2026-05-05 17:19 52.37434 13.51801 162 ft 8 kts 98°
2026-05-05 17:19 52.37429 13.51849 162 ft 0 kts 98°
2026-05-05 17:19 52.37428 13.51861 162 ft 0 kts 98°
2026-05-05 17:20 52.37428 13.51862 162 ft 0 kts 98°
2026-05-05 17:20 52.37428 13.51865 162 ft 1 kts 98°
2026-05-05 17:21 52.37423 13.51895 162 ft 3 kts 104°
2026-05-05 17:21 52.37420 13.51918 161 ft 7 kts 105°
2026-05-05 17:21 52.37362 13.52005 159 ft 17 kts 188°
2026-05-05 17:22 52.37292 13.51702 159 ft 18 kts 249°
2026-05-05 17:22 52.37247 13.51515 159 ft 17 kts 249°
2026-05-05 17:22 52.37205 13.51333 159 ft 17 kts 249°
2026-05-05 17:22 52.37163 13.51159 159 ft 16 kts 248°
2026-05-05 17:23 52.37123 13.50988 159 ft 16 kts 249°
2026-05-05 17:23 52.37084 13.50825 159 ft 15 kts 249°
2026-05-05 17:23 52.37045 13.50662 157 ft 16 kts 249°
2026-05-05 17:23 52.37005 13.50492 156 ft 16 kts 249°
2026-05-05 17:24 52.36963 13.50316 154 ft 17 kts 248°
2026-05-05 17:24 52.36911 13.50145 152 ft 17 kts 216°
2026-05-05 17:24 52.36803 13.50172 152 ft 15 kts 158°
2026-05-05 17:24 52.36703 13.50166 151 ft 15 kts 178°
2026-05-05 17:25 52.36606 13.50217 151 ft 15 kts 159°
2026-05-05 17:25 52.36543 13.50257 151 ft 14 kts 159°
2026-05-05 17:25 52.36420 13.50335 151 ft 14 kts 159°
2026-05-05 17:25 52.36299 13.50411 151 ft 22 kts 159°
2026-05-05 17:26 52.36154 13.50503 151 ft 23 kts 159°
2026-05-05 17:26 52.36020 13.50587 151 ft 21 kts 158°
2026-05-05 17:26 52.35919 13.50654 151 ft 14 kts 152°
2026-05-05 17:26 52.35907 13.50783 153 ft 12 kts 70°
2026-05-05 17:27 52.35937 13.50906 155 ft 11 kts 68°
2026-05-05 17:27 52.35963 13.51015 156 ft 11 kts 69°
2026-05-05 17:27 52.35995 13.51082 156 ft 6 kts 13°
2026-05-05 17:27 52.36038 13.51067 155 ft 7 kts 337°
2026-05-05 17:28 52.36062 13.51051 155 ft 1 kts 339°
2026-05-05 17:28 52.36063 13.51051 155 ft 0 kts 339°